Regional Weather Roundup
Issued by NWS Jackson, KY

Home | Current Version | Previous Version | Text Only | Print | Product List | Glossary On
Versions: 1 2 3 4 5 6 7 8 9 10 11 12 13 14 15 16 17 18 19 20 21 22 23 24 25 26 27 28
000
ASUS43 KJKL 310810
RWRJKL

EAST KENTUCKY HOURLY WEATHER ROUNDUP
NATIONAL WEATHER SERVICE JACKSON KY
400 AM EDT SUN JUL 31 2016

NOTE: "FAIR" INDICATES FEW OR NO CLOUDS BELOW 12,000 FEET WITH
NO SIGNIFICANT WEATHER AND/OR OBSTRUCTIONS TO VISIBILITY.

* THESE REPORTS ARE NOT UNDER NWS QUALITY CONTROL AND MAY NOT
  REPORT WEATHER SUCH AS PRECIPITATION AND FOG.

KYZ079-080-083-085-087-088-110-112-115-119-120-310900
...EASTERN KENTUCKY...

CITY           SKY/WX    TMP DP  RH WIND       PRES   REMARKS
JACKSON        PTCLDY    70  68  93 CALM      30.02S FOG
LONDON         PTCLDY    71  68  90 CALM      30.03S
SOMERSET*      PTCLDY    70  70 100 CALM      30.03R FOG
MONTICELLO*    MOCLDY   N/A N/A N/A NW9G16    30.04R HAZE
WILLIAMSBURG*  CLOUDY    68  68 100 CALM      30.04S VSB<1/4
MIDDLESBORO*   CLOUDY    69  69 100 CALM      30.05S
HARLAN APT*    CLOUDY    70  68  94 CALM      30.06S
PIKE CO APT*   FOG       70  70 100 CALM      30.03S VSB 1/4
MOREHEAD APT*  PTSUNNY   70  68  94 CALM      30.02S
ASHLAND*       CLOUDY    72  70  94 CALM      29.97S
$$

KYZ035-036-041-042-044-050-067-078-099-310900
...CENTRAL KENTUCKY...

CITY           SKY/WX    TMP DP  RH WIND       PRES   REMARKS
MT STERLING*   CLOUDY    72  72 100 CALM      30.01F
FLEMING/MASON* PTCLDY    69  68  98 SW3       30.00F FOG
DANVILLE*      CLEAR     68  68 100 CALM      30.02S FOG
LEXINGTON      CLEAR     70  68  93 SW3       30.01S
FRANKFORT      CLEAR     69  66  90 CALM      29.99S
LOUISVILLE     PTCLDY    74  70  87 CALM      29.98S
LEBANON*         N/A     68  68 100 CALM      30.00F FOG
GLASGOW*       CLEAR     70  70 100 CALM      30.00S
BOWLING GREEN  CLEAR     72  70  93 CALM      29.99F
$$

KYZ091>093-OHZ055-061-077-WVZ005-015-034-035-042-310900
...SOUTHERN OHIO/WEST VIRGINIA...

CITY           SKY/WX    TMP DP  RH WIND       PRES   REMARKS
COVINGTON      CLEAR     71  70  96 W5        29.98F
COLUMBUS       CLEAR     70  68  93 S3        29.95F
DAYTON         PTCLDY    68  66  93 SW7       29.98S
WILMINGTON     FOG       68  68 100 SW3       29.97F VSB 1/2
HUNTINGTON     MOCLDY    70  67  90 CALM      29.99R
CHARLESTON     MOCLDY    72  69  90 CALM      29.99S
PINEVILLE*     CLOUDY    67  64  90 MISG      30.10S FOG
BECKLEY          N/A     65  63  93 CALM      30.08F
BLUEFIELD      MOCLDY    67  65  93 W5        30.10F
LOGAN CO APT*  FOG       68  68 100 CALM      30.02S VSB<1/4
$$

VAZ002-007-008-TNZ017-027-036-066-071-310900
...SOUTHWEST VIRGINIA/EAST TENNESSEE...

CITY           SKY/WX    TMP DP  RH WIND       PRES   REMARKS
WISE*          MOCLDY    68  68 100 CALM      30.11F
JONESVILLE*    FOG       72  72 100 CALM      30.07S VSB<1/4
ABINGDON*      MOCLDY    71  71  99 CALM      30.08S
BRISTOL        PTCLDY    70  69  97 CALM      30.05S
MORRISTOWN*    PTSUNNY   72  70  94 CALM      30.03S
SEVIERVILLE*   MOSUNNY   70  66  88 CALM      30.02S
KNOXVILLE      MOCLDY    75  71  87 W5        30.01S
OAK RIDGE      MOCLDY    74  71  91 CALM      30.03S
CROSSVILLE     MOCLDY    69  68  96 CALM      30.08R FOG
NASHVILLE      PTCLDY    76  72  87 W6        30.01R
$$

...KEY TO REMARKS...
VSB - VISIBILITY IN MILES
WCI - WIND CHILL INDEX
HX  - HEAT INDEX

$$




USA.gov is the U.S. government's official web portal to all federal, state and local government web resources and services.